www.pogodaiklimat.ru

Погода и климат >> Архив погоды >> Португалия >> Porto Santo


ПОГОДА в Porto Santo

  • Прогноз погоды в Porto Santo
  • Монитор погоды в Porto Santo
  • Климат города

АРХИВ ПОГОДЫ в Porto Santo

Время (UTC), дата Ветер
(напр.,м/с)
 
Видим.   Явления Облачность Т
(С)
Тd
(С)
f
(%)
Тe
(С)
Тes
(С)
Комфортность P
(гПа)
Po
(гПа)
Тmin
(С)
Tmax
(С)
R
(мм)
R24
(мм)
S
(см)
18 11.12 СЗ 3
{6}
20 км 6/6 450 м
[Cu Sc]
+18.3 +15.0 81 +19 +19 1026.9 1017.1 +20.4
21 11.12 С 3 20 км 5/5 420 м
[Cu Sc]
+17.3 +15.2 87 +17 +17 1027.7 1017.9
00 12.12 СЗ 3
{5}
20 км 5/5 420 м
[Cu Sc]
+18.0 +15.7 86 +18 +18 1027.7 1017.9
03 12.12 СЗ 4 20 км 5/5 360 м
[Cu Sc]
+16.2 +15.0 93 +15 +15 1026.1 1016.3
06 12.12 СЗ 3 20 км 4/4 360 м
[Cu Sc]
+16.7 +15.2 91 +16 +16 1026.2 1016.4 +15.5
09 12.12 СЗ 4
{6}
20 км 3/1 360 м
[Cu hum Ci fib]
+17.7 +15.5 87 +17 +18 1026.6 1016.8
12 12.12 СЗ 4-6
{6}
20 км 6/3 420 м
[Cu hum Ci]
+19.6 +15.9 79 +22 +24 комфорт 1027.0 1017.3
15 12.12 З 4
{6}
20 км 5/5 420 м
[Cu Sc Ci fib]
+19.9 +15.5 76 +22 +24 комфорт 1024.9 1015.2
18 12.12 СЗ 5 20 км 9/5 420 м
[Cu Sc Ac trans Ci fib]
+18.2 +15.3 83 +18 +18 1025.6 1015.9 +20.2
21 12.12 З 3
{5}
20 км 8/5 420 м
[Cu Sc Ac und Ci sp]
+18.4 +16.1 86 +19 +19 1025.8 1016.1
00 13.12 СЗ 5
{8}
15 км 6/5 360 м
[Cu Sc Ac trans Ci fib]
+18.1 +15.0 82 +18 +18 1026.2 1016.5
03 13.12 З 6 15 км 8/6 360 м
[Cu Sc Ci fib]
+18.7 +16.3 86 +19 +19 1025.1 1015.4
06 13.12 СЗ 6 10 км 10/10 120 м
[Cu Sc]
+18.3 +17.7 96 +18 +18 1025.1 1015.3 +17.6
09 13.12 С 5-8
{9}
15 км 9/9 360 м
[Cu Sc Ci fib]
+17.8 +15.0 84 +17 +17 1026.4 1016.6
12 13.12 С 5
{8}
15 км 1/1 450 м
[Cu hum Ci fib]
+19.2 +13.5 70 +20 +23 1027.6 1017.9
15 13.12 С 6
{9}
15 км 6/6 450 м
[Cu Sc]
+18.8 +12.8 68 +19 +20 1027.0 1017.3
18 13.12 С 3-6
{9}
15 км 6/6 450 м
[Cu Sc]
+17.3 +11.3 68 +17 +17 1028.1 1018.3 +19.9
21 13.12 С 1 15 км ясно +14.0 +10.9 82 +14 +14 1028.6 1018.7
00 14.12 СВ 1 15 км ясно +13.6 +10.7 83 +14 +14 1029.1 1019.2
03 14.12 штиль 0 15 км 3/3 450 м
[Cu Sc]
+13.5 +10.2 80 +13 +13 1028.9 1019.0
06 14.12 штиль 0 15 км 3/3 450 м
[Cu Sc]
+12.7 +9.7 82 +12 +12 1028.4 1018.4 +12.4
09 14.12 штиль 0 15 км 3/3 450 м
[Cu Sc]
+13.8 +11.9 88 +13 +14 1029.9 1019.9
12 14.12 ЮВ 3-6
{6}
20 км 3/3 450 м
[Cu Sc]
+18.5 +11.8 65 +19 +23 1030.2 1020.4
15 14.12 ЮВ 3
{5}
20 км 1/1 450 м
[Cu hum]
+18.1 +12.0 68 +18 +22 1027.7 1017.9
18 14.12 Ю 2 20 км 1/1 450 м
[Cu hum]
+16.2 +11.8 75 +16 +16 1028.2 1018.3 +19.0
21 14.12 штиль 0 20 км 4/4 450 м
[Cu Sc]
+13.4 +11.4 88 +13 +13 1029.4 1019.4
00 15.12 штиль 0 20 км 1/1 450 м
[Cu hum]
+13.6 +11.7 88 +13 +13 1028.5 1018.6
03 15.12 штиль 0 20 км 5/5 450 м
[Cu Sc]
+12.8 +11.4 91 +12 +12 1028.5 1018.6
06 15.12 штиль 0 20 км 1/1 450 м
[Cu hum]
+11.5 +10.2 92 +11 +11 1027.7 1017.7 +11.4
09 15.12 штиль 0 20 км 1/1 450 м
[Cu hum]
+14.6 +13.0 90 +14 +15 1029.1 1019.2
12 15.12
{5}
20 км 1/1 480 м
[Cu hum]
+19.0 +13.6 71 1029.0 1019.2
15 15.12 ЮВ 2 20 км ясно +19.1 +13.9 72 +21 +26 комфорт 1027.3 1017.6
18 15.12 З 1 20 км 1/1 450 м
[Cu hum]
+16.1 +13.0 82 +17 +17 1027.7 1017.9 +19.6
21 15.12 штиль 0 20 км ясно +14.1 +12.5 90 +14 +14 1028.4 1018.5
00 16.12 штиль 0 15 км 3/3 450 м
[Cu hum]
+14.3 +13.1 92 +14 +14 1028.1 1018.1
03 16.12 штиль 0 н/о н/о +13.5 +12.8 96 +13 +13 1027.1 1017.1
06 16.12 штиль 0
{26}
15 км 3/3 450 м
[Cu hum]
+15.3 +14.7 96 +15 +15 1026.6 1016.7 +13.0
09 16.12 С 3 20 км 3/3 330 м
[Cu Sc Ci fib]
+17.7 +16.6 93 +18 +18 1027.8 1018.0
12 16.12 С 3
{6}
20 км 5/5 330 м
[Cu Sc]
+20.0 +17.5 86 +23 +26 комфорт 1028.5 1018.8
15 16.12 С 4
{7}
20 км 5/5 360 м
[Cu Sc]
+19.8 +16.2 80 +22 +24 комфорт 1026.3 1016.6
18 16.12 СВ 2
{7}
20 км {морось} 6/5 330 м
[Cu Sc Ac trans]
+17.8 +16.5 92 +18 +18 1027.0 1017.2 +20.7 0.1
21 16.12 В 4
{6}
15 км в посл. час морось 6/6 360 м
[Cu Sc Ac trans]
+17.6 +16.2 91 +17 +17 1028.0 1018.2
00 17.12 ЮВ 3
{5}
15 км в посл. час морось 6/6 360 м
[Cu Sc]
+17.2 +16.1 93 +17 +17 1027.9 1018.1 0.9
03 17.12 ЮВ 2 15 км 8/5 420 м
[Cu Sc Ac trans]
+16.3 +15.1 93 +16 +16 1026.3 1016.5
06 17.12 ЮВ 2 15 км 4/4 360 м
[Cu hum]
+15.5 +14.7 95 +15 +15 1025.5 1015.7 +13.5 0.9
09 17.12 ЮВ 5 20 км 5/5 400 м
[Cu Sc Ci fib]
+17.8 +15.0 84 +17 +17 1025.9 1016.2
12 17.12 ЮВ 6 20 км {морось} 4/4 450 м
[Cu Sc]
+19.6 +14.4 72 +21 +22 комфорт 1025.6 1015.9 0.1
15 17.12 ЮВ 7 20 км 3/3 450 м
[Cu Sc]
+19.2 +14.9 76 +20 +21 1023.1 1013.4
18 17.12 Ю 4
{7}
20 км 6/6 450 м
[Cu Sc]
+18.3 +15.2 82 +19 +19 1023.4 1013.6 +20.4 0.1
21 17.12 Ю 5 20 км 6/6 450 м
[Cu Sc]
+17.8 +15.1 84 +17 +17 1024.1 1014.3
00 18.12 Ю 5 20 км 6/6 450 м
[Cu Sc]
+17.6 +14.3 81 +17 +17 1023.4 1013.6
03 18.12 Ю 4
{6}
н/о н/о +16.8 +14.3 85 +16 +16 1022.1 1012.4
06 18.12 ЮВ 3
{8}
15 км 6/6 450 м
[Cu Sc]
+16.3 +14.5 89 +16 +16 1021.9 1012.1 +15.7
09 18.12 СЗ 5 15 км 5/1 450 м
[Cu hum Ci fib]
+17.7 +15.0 84 +17 +17 1023.9 1014.2
12 18.12 Ю 5 15 км 6/5 450 м
[Cu Sc Ci fib]
+20.3 +14.9 71 +23 +24 комфорт 1024.4 1014.8

 

Местоположение метеостанции Porto Santo (Португалия): широта 33.07 долгота -16.35 высота над уровнем моря 82 м.

В архиве по умолчанию представлена погода в Porto Santo за последнюю неделю. Архивные данные за месяц целиком и за предыдущие месяцы, начиная с января 2011 года, Вы можете получить, выбрав интересующий диапазон дат из раскрывающегося списка и нажав кнопку "Ввод!".


*Определитесь, кто Вы:
робот инопланетянин человек

Внимание! Время в таблицах - всемирное. Для получения местного времени необходимо прибавить поправку, которая в Porto Santo равна 0 ч.

Смотрите также архив погоды в соседних городах и на ближайших метеорологических станциях:

Погода в Funchal (S.Catarina) (Португалия) (58 км)
Погода в Funchal (Португалия) (71 км)
Погода в Tenerife (Канарские Острова) (512 км)
Погода в La Palma (Канарские Острова) (513 км)
Погода в Sta. Cruz De Tenerife (Канарские Острова) (514 км)
Погода в Lanzarote (Канарские Острова) (528 км)
Погода в Tenerife-Guimar (Канарские Острова) (528 км)
Погода в Izana (Канарские Острова) (531 км)
Погода в Reina Sofia Airport (Канарские Острова) (559 км)
Погода в Fuerteventura (Канарские Острова) (566 км)

Пояснения к столбцам:

Ветер - указаны скорость ветра в м/с - средняя за 10 мин, порывы в срок и между сроками (в фигурных скобках) и направление, откуда дует ветер: С - северный, СВ - северо-восточный, В - восточный, ЮВ - юго-восточный, Ю - южный, ЮЗ - юго-западный, З - западный, СЗ - северо-западный.
Видимость - горизонтальная дальность видимости в метрах или километрах. При видимости от 1 до 10 км при отсутствии осадков обычно наблюдается дымка, при ухудшении видимости до 1 км и менее - туман. В сухую погоду видимость может ухудшаться дымом, пылью или мглою.
Явления - указаны атмосферные явления, наблюдавшиеся в срок или в последний час перед сроком; фигурными скобками обозначены явления, наблюдавшиеся между сроками (за 1-3 часа до срока); квадратными скобками обозначены град или гололедные отложения с указанием их диаметра в мм.
Облачность - указаны через наклонную черту общая и нижняя облачность в баллах и высота нижней границы облаков в метрах; квадратными скобками обозначены формы облаков: Ci - перистые, Cs - перисто-слоистые, Cc - перисто-кучевые, Ac - высококучевые, As - высокослоистые, Sc - слоисто-кучевые, Ns - слоисто-дождевые, Cu - кучевые, Cb - кучево-дождевые. Подробнее классификацию облаков см. в Атласе облаков (PDF).
T - Температура воздуха - температура, измеренная на высоте 2 м над землей.
Td - Температура точки росы - температура, при понижении до которой содержащийся в воздухе водяной пар достигнет насыщения.
f - Относительная влажность воздуха - влажноcть воздуха, измеренная на высоте 2 м над землей.
Te - Эффективная температура - температура, которую ощущает одетый по сезону человек в тени. Характеристика душности погоды. При расчете учитывается влияние влажности воздуха и скорости ветра на теплоощущения человека.
Tes - Эффективная температура на солнце - температура, которую ощущает человек, с поправкой на солнечный нагрев. Характеристика знойности погоды. Зависит от высоты солнца над горизонтом, облачности и скорости ветра. Ночью, в пасмурную погоду, а также при ветре 12 м/с и более поправка равна нулю.
P - Атмосферное давление - приведенное к уровню моря атмосферное давление.
Po - Атмосферное давление - измеренное на уровне метеостанции атмосферное давление.
Tmin - Минимальная температура - минимум температуры воздуха на высоте 2 м над землей.
Tmax - Максимальная температура - максимум температуры воздуха на высоте 2 м над землей.
R - Количество осадков - Количество выпавших осадков за период времени, мм. При наведении курсора мыши на число - период времени, за который выпало указанное количество осадков.
R24 - Количество осадков - Количество выпавших осадков за 24 часа, мм.
S - Снежный покров - Высота снежного покрова, см. При наведении курсора мыши на число - состояние снежного покрова и степень покрытия местности в баллах.